Regional Weather Roundup
Issued by NWS

Home | Current Version | Previous Version | Text Only | Print | Product List | Glossary Off
Versions: 1 2 3 4 5 6 7 8 9 10 11 12 13 14 15 16 17 18 19 20 21 22 23 24 25 26 27 28 29 30 31 32 33 34 35 36 37 38 39 40 41 42 43 44 45 46 47 48 49 50

000
ASUS43 KLOT 030210
RWRIL

ILLINOIS REGIONAL WEATHER ROUNDUP
NATIONAL WEATHER SERVICE CHICAGO/ROMEOVILLE IL
800 PM CST MON MAR 02 2015

NOTE: "FAIR" INDICATES FEW OR NO CLOUDS BELOW 12,000 FEET WITH NO
SIGNIFICANT WEATHER AND/OR OBSTRUCTIONS TO VISIBILITY.

* THESE STATIONS ARE NOT UNDER NWS QUALITY CONTROL. THEY ALSO MAY NOT
  REPORT WEATHER SUCH AS PRECIPITATION OR FOG.

ILZ001-002-007-009-015-016-024-030300-
NORTHWEST ILLINOIS

CITY           SKY/WX    TMP DP  RH WIND       PRES   REMARKS
MOLINE         CLOUDY    27  18  69 E8        30.28F WCI  19
STERLING*      CLOUDY    25  18  74 SE8       30.32F WCI  16
SAVANNA*       CLOUDY    26  19  74 SE8       30.30F WCI  17
$$

ILZ003-004-008-010-011-017-018-030300-
NORTH CENTRAL ILLINOIS

CITY           SKY/WX    TMP DP  RH WIND       PRES   REMARKS
ROCKFORD       CLOUDY    25  17  72 S12       30.34F WCI  14
FREEPORT*      CLOUDY    24  18  77 S8        30.33F WCI  15
ROCHELLE*      CLOUDY    23  19  83 S7        30.34F WCI  15
DE KALB*       CLOUDY    23  16  75 S10       30.34F WCI  12
PERU*          CLOUDY    25  19  79 SE8       30.34F WCI  16
$$

ILZ005-006-012>014-019>023-030300-
NORTHEAST ILLINOIS

CITY           SKY/WX    TMP DP  RH WIND       PRES   REMARKS
CHICAGO-OHARE  CLOUDY    27  16  63 SW7       30.34F WCI  19
CHICAGO-MIDWAY CLOUDY    28  14  55 S12G20    30.36F WCI  18
AURORA         CLOUDY    25  14  63 S8        30.35F WCI  16
LANSING*       CLOUDY    26  17  71 S8        30.37F WCI  17
JOLIET*        CLOUDY    25  16  66 S7        30.37S WCI  18
WAUKEGAN       CLOUDY    26  21  81 S8        30.32F WCI  18
DUPAGE AIRPORT CLOUDY    25  15  66 S5        30.34F WCI  19
KANKAKEE*      CLOUDY    25  19  76 S3        30.38F
WHEELING       CLOUDY    29  15  56 SW9       30.36S WCI  20
MORRIS*        CLOUDY    24  19  82 S5        30.35F WCI  18
ROMEOVILLE*    CLOUDY    26  16  67 S8        30.35F WCI  17
NORTHERLY ISL    N/A     28  13  53 SW8         N/A  WCI  20
$$

LMZ740>746-030300-
SOUTHERN LAKE MICHIGAN

STATION/POSITION SKY/WX   TEMP    WIND        PRES    VSBY  WAVE
                          AIR SEA DIR/SP/G                  HT/PER
                          (F)     (DEG/KT/KT) (MB)    (MI)  (FT/S)
WAUKEGAN HARBOR            27     170/ 31       N/A
HARRISON CRIB              28     190/ 14/ 17   N/A
BURNHAM HARBOR             27     190/  7/ 10   N/A
CALUMET HARBOR             27                   N/A
MICHIGAN CITY              27     150/  7/  9   N/A
$$

ILZ025>027-034>036-040-047-049-050-058-095>099-030300-
WEST-CENTRAL ILLINOIS

CITY           SKY/WX    TMP DP  RH WIND       PRES   REMARKS
QUINCY         CLOUDY    29  19  66 SE9       30.26F WCI  20
GALESBURG*     CLOUDY    27  19  71 E6        30.27F WCI  20
MACOMB*        CLOUDY    27  21  77 SE10      30.30F WCI  18
JACKSONVILLE*  CLOUDY    29  19  66 SE9       30.30F WCI  21
PITTSFIELD*    CLOUDY    30  21  69 SE8       30.28F WCI  22
$$

ILZ028>032-037-038-041>044-048-051>054-059>061-030300-
CENTRAL ILLINOIS

CITY           SKY/WX    TMP DP  RH WIND       PRES   REMARKS
PONTIAC        CLOUDY    26  21  82 SE5       30.36F WCI  20
BLOOMINGTON    MOCLDY    20  17  88 SE8       30.33F WCI  10
DECATUR        CLOUDY    21  17  84 E9        30.33F WCI  11
PEORIA         CLOUDY    28  19  69 SE9       30.31F WCI  19
LACON*         CLOUDY    26  19  76 SE7       30.33F WCI  18
LINCOLN*       CLOUDY    22  19  85 E8        30.34F WCI  13
SPRINGFIELD    CLOUDY    28  20  71 E9        30.31F WCI  19
TAYLORVILLE    CLOUDY    28  19  69 E8        30.32F WCI  20
$$

ILZ033-039-045-046-055>057-062-063-030300-
EAST-CENTRAL ILLINOIS

CITY           SKY/WX    TMP DP  RH WIND       PRES   REMARKS
CHAMPAIGN      CLOUDY    22  16  78 E7        30.35F WCI  13
DANVILLE*      MOCLDY    23  15  74 CALM      30.35F
RANTOUL*       MOCLDY    22  18  85 E5        30.35F WCI  15
MATTOON        MOCLDY    21  15  78 E6        30.33F WCI  13
PARIS*         MOCLDY    25  19  79 CALM      30.36F
$$

ILZ079-100>102-030300-
SOUTHWEST ILLINOIS

CITY           SKY/WX    TMP DP  RH WIND       PRES   REMARKS
ALTON          MOCLDY    28  16  59 E7        30.31F WCI  21
BELLEVILLE     CLOUDY    29  20  68 E6        30.30F WCI  23
CAHOKIA*       CLOUDY    31  21  66 E3        30.31F
SPARTA*        CLOUDY    30  20  65 E7        30.31F WCI  23
$$

ILZ064>066-069>071-074>076-080>082-084>086-088>090-092>094-030300-
SOUTH-CENTRAL ILLINOIS

CITY           SKY/WX    TMP DP  RH WIND       PRES   REMARKS
CARBONDALE     CLOUDY    33  22  63 E8        30.31F WCI  26
CAIRO*         CLOUDY    38  24  56 E9        30.30F WCI  32
EFFINGHAM*     MOCLDY    28  15  59 E3        30.34F
MARION         CLOUDY    34  23  64 E7        30.32F WCI  28
MT. VERNON     CLOUDY    28  16  59 E5        30.34F WCI  23
CENTRALIA*     CLOUDY    29  18  64 E3        30.33F
SALEM*         CLOUDY    31  20  62 CALM      30.34S
METROPOLIS*    MOCLDY    36  24  63 NE3       30.31F
$$

ILZ067-068-072-073-078-083-087-091-030300-
SOUTHEAST ILLINOIS

CITY           SKY/WX    TMP DP  RH WIND       PRES   REMARKS
LAWRENCEVILLE  MOCLDY    27  19  72 NE7       30.38R WCI  19
FLORA*         MOCLDY    27  19  72 E3        30.35F
FAIRFIELD*     CLOUDY    29  20  70 NE3       30.33F
HARRISBURG*    MOCLDY    31  25  77 NE7       30.34F WCI  24
ROBINSON*      PTCLDY    27  23  84 CALM      30.38F
CARMI*         MOCLDY    31  27  84 NE5       30.34F WCI  27
$$

ABBREVIATIONS USED IN REMARKS
   TC - TEMPERATURE IN CELSIUS
  WCI - WIND CHILL INDEX
   HX - HEAT INDEX
  VSB - VISIBILITY
$$



USA.gov is the U.S. government's official web portal to all federal, state and local government web resources and services.